Lordsburg, NM

12:19 PM MDT on June 25, 2017 (GMT -0600)
Lordsburg

Weather History for KLSB - March, 2013

Change the Weather History Date:

Wednesday, March 6, 2013

  Actual Average Record
Temperature  
Mean Temperature 64 °F -  
Max Temperature 77 °F 67 °F 77 °F (2013)
Min Temperature 46 °F 30 °F 30 °F (2015)
Degree Days  
Heating Degree Days 2    
Growing Degree Days 14 (Base 50)    
Moisture  
Dew Point 26 °F    
Average Humidity 28    
Maximum Humidity 40    
Minimum Humidity 16    
Precipitation  
Precipitation 0.00 in - - ()
Sea Level Pressure  
Sea Level Pressure 30.07 in    
Wind  
Wind Speed 11 mph (SE)    
Max Wind Speed 17 mph    
Max Gust Speed 23 mph    
Visibility 10 miles    
Events      
Averages and records for this station are not official NWS values.
T = Trace of Precipitation, MM = Missing Value Source: NWS Daily Summary

Daily Weather History Graph

Daily Weather History Graph

Search for Another Location

Airport or City:

Trip Planner

Search our weather history database for the weather conditions in past years. The results will help you decide how hot, cold, wet, or windy it might be!

Date:

Astronomy

Mar. 06, 2013 Rise Set
Actual Time 6:36 AM MST 6:15 PM MST
Civil Twilight 6:11 AM MST 6:40 PM MST
Nautical Twilight 5:42 AM MST 7:09 PM MST
Astronomical Twilight 5:13 AM MST 7:38 PM MST
Moon 2:38 AM MST (3/6) 1:11 PM MST (3/6)
Length of Visible Light 12h 28m
Length of Day
11h 38m
Waning Crescent, 29% of the Moon is Illuminated
Mar 6
Waning Crescent
Mar 11
New
Mar 19
First Quarter
Mar 27
Full
Apr 2
Last Quarter

Hourly Weather History & Observations

Time (MST) Temp. Dew Point Humidity Pressure Visibility Wind Dir Wind Speed Gust Speed Precip Events Conditions
12:15 AM 53.6 °F 26.6 °F 35% 30.13 in 10.0 mi ESE 15.0 mph 20.7 mph N/A   Clear
12:35 AM 53.6 °F 26.6 °F 35% 30.14 in 10.0 mi SE 15.0 mph - N/A   Clear
12:55 AM 53.6 °F 26.6 °F 35% 30.14 in 10.0 mi ESE 16.1 mph 23.0 mph N/A   Clear
1:15 AM 53.6 °F 26.6 °F 35% 30.14 in 10.0 mi SE 17.3 mph 21.9 mph N/A   Clear
1:35 AM 53.6 °F 26.6 °F 35% 30.14 in 10.0 mi SE 16.1 mph 23.0 mph N/A   Clear
1:55 AM 53.6 °F 26.6 °F 35% 30.13 in 10.0 mi SE 16.1 mph - N/A   Clear
2:15 AM 53.6 °F 26.6 °F 35% 30.13 in 10.0 mi SE 13.8 mph - N/A   Clear
2:35 AM 53.6 °F 26.6 °F 35% 30.12 in 10.0 mi SE 13.8 mph 20.7 mph N/A   Clear
2:55 AM 53.6 °F 26.6 °F 35% 30.11 in 10.0 mi SE 16.1 mph - N/A   Clear
3:15 AM 53.6 °F 26.6 °F 35% 30.10 in 10.0 mi SE 15.0 mph - N/A   Clear
3:35 AM 51.8 °F 26.6 °F 38% 30.09 in 10.0 mi ESE 11.5 mph 18.4 mph N/A   Clear
3:55 AM 51.8 °F 26.6 °F 38% 30.10 in 10.0 mi North - - N/A   Clear
4:15 AM 51.8 °F 26.6 °F 38% 30.10 in 10.0 mi North - - N/A   Clear
4:35 AM 50.0 °F 26.6 °F 40% 30.10 in 10.0 mi South 8.1 mph - N/A   Clear
4:55 AM 50.0 °F 26.6 °F 40% 30.11 in 10.0 mi South 11.5 mph - N/A   Clear
5:15 AM 50.0 °F 26.6 °F 40% 30.11 in 10.0 mi South 11.5 mph - N/A   Clear
5:35 AM 50.0 °F 26.6 °F 40% 30.11 in 10.0 mi SSE 9.2 mph - N/A   Scattered Clouds
5:55 AM 50.0 °F 26.6 °F 40% 30.11 in 10.0 mi SSE 12.7 mph - N/A   Mostly Cloudy
6:15 AM 50.0 °F 26.6 °F 40% 30.12 in 10.0 mi South 12.7 mph - N/A   Scattered Clouds
6:35 AM 50.0 °F 26.6 °F 40% 30.12 in 10.0 mi SSE 12.7 mph - N/A   Scattered Clouds
6:55 AM 50.0 °F 26.6 °F 40% 30.13 in 10.0 mi SSE 12.7 mph - N/A   Scattered Clouds
7:15 AM 50.0 °F 26.6 °F 40% 30.13 in 10.0 mi SSE 10.4 mph - N/A   Clear
7:35 AM 50.0 °F 26.6 °F 40% 30.13 in 10.0 mi South 12.7 mph - N/A   Clear
7:55 AM 51.8 °F 26.6 °F 38% 30.14 in 10.0 mi SSE 13.8 mph - N/A   Clear
8:15 AM 53.6 °F 26.6 °F 35% 30.15 in 10.0 mi SSE 11.5 mph 17.3 mph N/A   Clear
8:35 AM 53.6 °F 26.6 °F 35% 30.15 in 10.0 mi SSE 13.8 mph - N/A   Clear
8:55 AM 53.6 °F 26.6 °F 35% 30.16 in 10.0 mi SSE 11.5 mph - N/A   Clear
9:15 AM 57.2 °F 26.6 °F 31% 30.16 in 10.0 mi SSE 16.1 mph 21.9 mph N/A   Clear
9:35 AM 59.0 °F 26.6 °F 29% 30.15 in 10.0 mi SE 12.7 mph - N/A   Clear
9:55 AM 62.6 °F 26.6 °F 26% 30.15 in 10.0 mi SE 13.8 mph - N/A   Clear
10:15 AM 60.8 °F 26.6 °F 27% 30.15 in 10.0 mi SE 16.1 mph 20.7 mph N/A   Clear
10:35 AM 64.4 °F 26.6 °F 24% 30.14 in 10.0 mi SE 15.0 mph - N/A   Clear
10:55 AM 68.0 °F 26.6 °F 21% 30.14 in 10.0 mi SE 12.7 mph 18.4 mph N/A   Clear
11:15 AM 68.0 °F 26.6 °F 21% 30.14 in 10.0 mi SE 11.5 mph - N/A   Clear
11:35 AM 68.0 °F 26.6 °F 21% 30.12 in 10.0 mi SE 10.4 mph 17.3 mph N/A   Clear
11:55 AM 68.0 °F 24.8 °F 20% 30.11 in 10.0 mi ESE 9.2 mph - N/A   Clear
12:15 PM 69.8 °F 26.6 °F 20% 30.10 in 10.0 mi SE 12.7 mph 17.3 mph N/A   Clear
12:35 PM 69.8 °F 24.8 °F 18% 30.08 in 10.0 mi SE 5.8 mph - N/A   Clear
12:55 PM 71.6 °F 26.6 °F 19% 30.07 in 10.0 mi SE 6.9 mph - N/A   Clear
1:15 PM 71.6 °F 26.6 °F 19% 30.06 in 10.0 mi North - - N/A   Clear
1:35 PM 71.6 °F 26.6 °F 19% 30.04 in 10.0 mi NNE 4.6 mph - N/A   Clear
1:55 PM 73.4 °F 26.6 °F 18% 30.03 in 10.0 mi Calm Calm - N/A   Clear
2:15 PM 73.4 °F 26.6 °F 18% 30.02 in 10.0 mi North 4.6 mph - N/A   Clear
2:35 PM 73.4 °F 26.6 °F 18% 30.01 in 10.0 mi Calm Calm - N/A   Clear
2:55 PM 77.0 °F 26.6 °F 16% 30.01 in 10.0 mi East 4.6 mph - N/A   Clear
3:15 PM 77.0 °F 26.6 °F 16% 30.00 in 10.0 mi East 5.8 mph - N/A   Clear
3:35 PM 75.2 °F 26.6 °F 17% 29.99 in 10.0 mi Calm Calm - N/A   Clear
3:55 PM 75.2 °F 26.6 °F 17% 29.98 in 10.0 mi NE 3.5 mph - N/A   Scattered Clouds
4:15 PM 75.2 °F 26.6 °F 17% 29.98 in 10.0 mi NNE 5.8 mph - N/A   Scattered Clouds
4:35 PM 73.4 °F 26.6 °F 18% 29.98 in 10.0 mi NNE 3.5 mph - N/A   Mostly Cloudy
4:55 PM 73.4 °F 26.6 °F 18% 29.98 in 10.0 mi East 4.6 mph - N/A   Mostly Cloudy
5:15 PM 73.4 °F 26.6 °F 18% 29.98 in 10.0 mi NNE 4.6 mph - N/A   Overcast
5:35 PM 75.2 °F 26.6 °F 17% 29.97 in 10.0 mi ENE 4.6 mph - N/A   Mostly Cloudy
5:55 PM 73.4 °F 26.6 °F 18% 29.97 in 10.0 mi South 4.6 mph - N/A   Scattered Clouds
6:15 PM 71.6 °F 26.6 °F 19% 29.97 in 10.0 mi SSE 3.5 mph - N/A   Clear
6:35 PM 69.8 °F 26.6 °F 20% 29.97 in 10.0 mi Calm Calm - N/A   Clear
6:55 PM 64.4 °F 26.6 °F 24% 29.97 in 10.0 mi South 5.8 mph - N/A   Clear
7:35 PM 60.8 °F 24.8 °F 25% 29.99 in 10.0 mi WSW 6.9 mph - N/A   Clear
7:55 PM 64.4 °F 24.8 °F 22% 29.99 in 10.0 mi West 9.2 mph - N/A   Clear
8:15 PM 60.8 °F 23.0 °F 23% 29.99 in 10.0 mi West 5.8 mph - N/A   Clear
8:35 PM 60.8 °F 24.8 °F 25% 29.99 in 10.0 mi WSW 8.1 mph - N/A   Clear
8:55 PM 60.8 °F 23.0 °F 23% 29.99 in 10.0 mi West 6.9 mph - N/A   Clear
9:15 PM 53.6 °F 23.0 °F 30% 30.00 in 10.0 mi ENE 4.6 mph - N/A   Clear
9:35 PM 59.0 °F 23.0 °F 25% 30.01 in 10.0 mi Calm Calm - N/A   Clear
9:55 PM 59.0 °F 23.0 °F 25% 30.00 in 10.0 mi Calm Calm - N/A   Clear
10:15 PM 51.8 °F 21.2 °F 30% 30.01 in 10.0 mi Calm Calm - N/A   Clear
10:35 PM 53.6 °F 23.0 °F 30% 30.01 in 10.0 mi Calm Calm - N/A   Clear
10:55 PM 53.6 °F 23.0 °F 30% 30.01 in 10.0 mi Calm Calm - N/A   Clear
11:15 PM 59.0 °F 23.0 °F 25% 30.01 in 10.0 mi Calm Calm - N/A   Clear
11:35 PM 50.0 °F 23.0 °F 35% 30.01 in 10.0 mi NNE 4.6 mph - N/A   Clear
11:55 PM 46.4 °F 23.0 °F 40% 30.02 in 10.0 mi North - - N/A   Clear